Tracking 21076 objects as of 10-Aug-2020
HD Live streaming from Space Station
objects crossing your sky now
Track the most recent launched group of Starlink satellites

SCOUT G-1 DEB

Track SCOUT G-1 DEB now!
10-day predictions


NORAD ID: 18426
Int'l Code: 1986-088C
Perigee: 943.8 km
Apogee: 1,049.1 km
Inclination: 89.1 °
Period: 104.9 minutes
Semi major axis: 7367 km
RCS: 0.0396 m2 (small)
Launch date: November 14, 1986
Source: United States (US)
Launch site: AIR FORCE WESTERN TEST RANGE (AFWTR)

Note: This is SATELLITE DEBRIS
aabbcc
Your satellite tracking list
Your tracking list is empty




NASA's NSSDC Master Catalog

Two Line Element Set (TLE):
1 18426U 86088C   20223.35625439 +.00000095 +00000-0 +86797-4 0  9992
2 18426 089.1197 088.2017 0071444 093.0625 331.4218 13.72863755687672
Source of the keplerian elements: AFSPC